"Pseudo-MPEC" for P11oYQ1

Created 2021 Nov 26 16:07:10 UT using Find_Orb

Click here for an explanation of pseudo-MPECs

 
 Astrometry: 
     P11oYQ1  C2021 11 12uEo@)QKRAstrometry/.17Q3K+_2HNGg(cQ[dMYm\=x-o-;ZDr11F51
     P11oYQ1  C2021 11 12CPp(redacted;W=xDF;P'#a9pCVIP%VE_U=K@aU7CK/TibS5#)p)F51
     P11oYQ1  C2021 11 12,WwV-%*36OclickLEmQe.,VQ2f`!N96QB`5(=f8=heresrG`bPg-F51
     P11oYQ1  C2021 11 12Cr+%)77ow8wfor6explanation((2B=n_]`VWXW=@-*'+#T6\]MsF51

Station data:
(F51) Pan-STARRS 1, Haleakala  (N20.707235 W156.255910)  US/Hawaii.
   Observers N. Primak, A. Schultz, S. Watters, J. Thiel, T. Goggia. Measurer
   PS1 Science Consortium. 1.8-m Ritchey-Chrétien + CCD.

Orbital elements:  P11oYQ1
   Perihelion 2022 Jan 4.307209 +/- 46.6891 TT =  7:22:22 (JD 2459583.807209)
Epoch 2021 Nov 13.0 TT = JDT 2459531.5   Earth MOID: 0.4434   AutoNEOCP
M 340.64666894 +/- 25.639076        (J2000 ecliptic)
n   0.36999356 +/- 0.317072         Peri.  305.91039 +/- 93.893472
a   1.92164546 +/- 1.12174          Node   149.38041 +/- 49.146485
e   0.2901226 +/- 0.255057          Incl.   17.37135 +/- 9.8295650
P   2.66/972.97d           H 19.1   G  0.15   U 12.0  SR
q 1.36413255 +/- 0.438878    Q 2.47915838 +/- 60.2121
From 4 observations 2021 Nov. 12 (50.2 min); mean residual 0".02
Residuals in arcseconds: 
211112 F51  .00   .00     211112 F51  .00   .04+    
211112 F51  .01-  .01-    211112 F51  .02-  .00     

Ephemerides (geocentric):
Date (UTC) HH   RA              Dec         delta   r     elong  mag " sig PA
---- -- -- --  -------------   -----------  ------ ------ -----  --- ---- ---
2021 11 26 16  05 36 29.028   -25 28 36.11  .54782 1.3977 128.9 19.9  54d 170
2021 11 26 17  05 36 28.584   -25 28 56.33  .54770 1.3976 128.9 19.9  54d 170
2021 11 26 18  05 36 28.137   -25 29 16.48  .54759 1.3975 128.9 19.9  54d 170
2021 11 26 19  05 36 27.687   -25 29 36.54  .54747 1.3975 129.0 19.9  55d 170
2021 11 26 20  05 36 27.233   -25 29 56.52  .54735 1.3974 129.0 19.9  55d 170
2021 11 26 21  05 36 26.775   -25 30 16.42  .54724 1.3973 129.0 19.9  55d 170
2021 11 26 22  05 36 26.314   -25 30 36.24  .54712 1.3973 129.0 19.9  55d 170
2021 11 26 23  05 36 25.849   -25 30 55.97  .54700 1.3972 129.0 19.9  55d 170
2021 11 27 00  05 36 25.381   -25 31 15.63  .54689 1.3971 129.0 19.9  55d 170
2021 11 27 01  05 36 24.909   -25 31 35.20  .54677 1.3970 129.0 19.9  56d 170
2021 11 27 02  05 36 24.433   -25 31 54.70  .54665 1.3970 129.0 19.9  56d 170
2021 11 27 03  05 36 23.954   -25 32 14.11  .54654 1.3969 129.0 19.9  56d 170
2021 11 27 04  05 36 23.472   -25 32 33.44  .54642 1.3968 129.0 19.9  56d 170
2021 11 27 05  05 36 22.985   -25 32 52.69  .54631 1.3968 129.0 19.9  56d 170
2021 11 27 06  05 36 22.496   -25 33 11.85  .54619 1.3967 129.0 19.9  56d 170
2021 11 27 07  05 36 22.003   -25 33 30.94  .54608 1.3966 129.0 19.9  56d 170
2021 11 27 08  05 36 21.506   -25 33 49.94  .54596 1.3966 129.0 19.9  57d 170
2021 11 27 09  05 36 21.006   -25 34 08.86  .54585 1.3965 129.0 19.9  57d 170
2021 11 27 10  05 36 20.502   -25 34 27.70  .54573 1.3964 129.0 19.9  57d 170
2021 11 27 11  05 36 19.995   -25 34 46.45  .54562 1.3964 129.1 19.9  57d 170
2021 11 27 12  05 36 19.484   -25 35 05.12  .54550 1.3963 129.1 19.9  57d 170
2021 11 27 13  05 36 18.970   -25 35 23.71  .54539 1.3962 129.1 19.9  57d 170
2021 11 27 14  05 36 18.452   -25 35 42.22  .54527 1.3961 129.1 19.9  57d 170
2021 11 27 15  05 36 17.931   -25 36 00.65  .54516 1.3961 129.1 19.9  58d 170
2021 11 27 16  05 36 17.406   -25 36 18.99  .54504 1.3960 129.1 19.9  58d 170
2021 11 27 17  05 36 16.878   -25 36 37.25  .54493 1.3959 129.1 19.9  58d 170
2021 11 27 18  05 36 16.346   -25 36 55.43  .54481 1.3959 129.1 19.9  58d 170
2021 11 27 19  05 36 15.811   -25 37 13.52  .54470 1.3958 129.1 19.9  58d 170
2021 11 27 20  05 36 15.272   -25 37 31.53  .54459 1.3957 129.1 19.9  58d 170
2021 11 27 21  05 36 14.730   -25 37 49.46  .54447 1.3957 129.1 19.9  58d 170
2021 11 27 22  05 36 14.185   -25 38 07.30  .54436 1.3956 129.1 19.9  58d 170
2021 11 27 23  05 36 13.636   -25 38 25.06  .54425 1.3955 129.1 19.9  58d 169
2021 11 28 00  05 36 13.083   -25 38 42.74  .54413 1.3955 129.1 19.9  58d 169
2021 11 28 01  05 36 12.527   -25 39 00.33  .54402 1.3954 129.1 19.9  58d 169
2021 11 28 02  05 36 11.968   -25 39 17.84  .54391 1.3953 129.2 19.9  58d 169
2021 11 28 03  05 36 11.405   -25 39 35.26  .54379 1.3953 129.2 19.9  58d 169
2021 11 28 04  05 36 10.839   -25 39 52.60  .54368 1.3952 129.2 19.9  58d 169
2021 11 28 05  05 36 10.269   -25 40 09.86  .54357 1.3951 129.2 19.9  58d 169
2021 11 28 06  05 36 09.696   -25 40 27.03  .54345 1.3950 129.2 19.9  58d 169
2021 11 28 07  05 36 09.120   -25 40 44.12  .54334 1.3950 129.2 19.9  58d 169
2021 11 28 08  05 36 08.540   -25 41 01.13  .54323 1.3949 129.2 19.9  59d 169
2021 11 28 09  05 36 07.956   -25 41 18.05  .54312 1.3948 129.2 19.9  59d 169
2021 11 28 10  05 36 07.370   -25 41 34.88  .54301 1.3948 129.2 19.9  59d 169
2021 11 28 11  05 36 06.780   -25 41 51.63  .54289 1.3947 129.2 19.9  59d 169
2021 11 28 12  05 36 06.186   -25 42 08.30  .54278 1.3946 129.2 19.9  59d 168
2021 11 28 13  05 36 05.589   -25 42 24.88  .54267 1.3946 129.2 19.9  59d 168
2021 11 28 14  05 36 04.989   -25 42 41.37  .54256 1.3945 129.2 19.9  59d 168
2021 11 28 15  05 36 04.385   -25 42 57.78  .54245 1.3944 129.2 19.9  59d 168